{"data":{"norad_id":68208,"epoch":"2026-09-18T21:38:20.450112Z","epoch_age_seconds":190242,"freshness":"STALE","line1":"1 68208U 26053B   26261.90162558  .00020614  00000+0  63908-3 0  9994","line2":"2 68208  97.2842 135.6290 0001670  98.3355 261.8077 15.33446417 29821","mean_motion":15.33446417,"eccentricity":0.000167,"inclination_deg":97.2842,"raan_deg":135.629,"arg_perigee_deg":98.3355,"mean_anomaly_deg":261.8077,"bstar":0.00063908,"rev_number":2982,"period_min":93.906117881653,"perigee_km":464.39606460125,"apogee_km":466.68185237139,"semimajor_km":6843.6759584863,"source":"CELESTRAK","updated_at":"2026-09-20T09:00:43.832383Z"}}